Flag for Afghanistan Weather past 2 weeks in Ghazni, Afghanistan

Now
79 °F

Warm.


Feels Like: 81 °F
Forecast: 45 / 86 °F
Wind: N/A

Location: Peshawar Airport

Current Time: Aug 22, 2014 at 2:49:48 AM

Latest Report: Aug 22, 2014 at 2:30 AM


Visibility: N/A

Pressure: 29.56 "Hg

Humidity: 70%

Dew point: 68 °F

Location of GhazniLocation

Historic Weather in Ghazni — Graph

°F

Ghazni temperature yesterday

Maximum temperature yesterday: 100 °F (at 2:30 PM)
Minimum temperature yesterday: 72 °F (at 8:30 PM)
Average temperature yesterday: 89 °F

Past Weeks' High & Low Weather Summary

 TemperatureHumidityPressure
High102 °F (Aug 11, 2:30 PM)100% (Aug 8, 11:30 AM)29.80 "Hg (Aug 8, 11:30 AM)
Low37 °F (Aug 8, 11:30 AM)35% (Aug 18, 2:30 PM)29.36 "Hg (Aug 14, 3:30 PM)
Average88 °F65%29.58 "Hg
* Reported Aug 7 1:30 AM — Aug 22 1:30 AM, Ghazni, Weather by CustomWeather, © 2014

Note: Actual official high and low records may vary slightly from our data, if they occured in-between our weather recording intervals... More about our weather records

Advertising

Ghazni weather history for previous 24 hours

 ConditionsComfort  
Time TempWeatherWind HumidityBarometerVisibility
1:30 AM
Aug 22
79 °FWarm.N/A61%29.56 "HgN/A
12:30 AM79 °FWarm.N/A61%29.59 "HgN/A
11:30 PM
Aug 21
79 °FWarm.N/A61%29.59 "HgN/A
10:30 PM79 °FWarm.N/A61%29.59 "HgN/A
9:30 PM75 °FMild.N/A69%29.62 "HgN/A
8:30 PM72 °FMild.N/A83%29.59 "HgN/A
7:30 PM93 °FExtremely hot.N/A63%29.53 "HgN/A
6:30 PM95 °FExtremely hot.N/A60%29.53 "HgN/A
5:30 PM99 °FExtremely hot.N/A53%29.53 "HgN/A
4:30 PM99 °FExtremely hot.N/A53%29.50 "HgN/A
3:30 PM100 °FExtremely hot.N/A53%29.53 "HgN/A
2:30 PM100 °FExtremely hot.No wind53%29.53 "HgN/A
1:30 PM99 °FExtremely hot.N/A53%29.56 "HgN/A
12:30 PM97 °FExtremely hot.N/A56%29.56 "HgN/A
11:30 AM95 °FExtremely hot.N/A63%29.59 "HgN/A
10:30 AM91 °FHot.N/A63%29.62 "HgN/A
9:30 AM90 °FHot.N/A71%29.62 "HgN/A
8:30 AM90 °FHot.N/A75%29.62 "HgN/A
7:30 AM86 °FWarm.N/A75%29.62 "HgN/A
6:30 AM86 °FHaze.5 mph75%29.59 "Hg2 mi
5:30 AM86 °FHaze.5 mph75%29.59 "Hg2 mi
4:30 AM86 °FHaze.5 mph75%29.56 "Hg2 mi
3:30 AM86 °FPassing clouds.5 mph75%29.56 "Hg2 mi
2:30 AM86 °FWarm.N/A70%29.56 "HgN/A
Weather by CustomWeather, © 2014

See weather overviewHow to use our weather pages